Regional Weather Roundup
Issued by NWS

Home | Current Version | Previous Version | Text Only | Print | Product List | Glossary Off
Versions: 1 2 3 4 5 6 7 8 9 10 11 12 13 14 15 16 17 18 19 20 21 22 23 24 25 26 27 28 29 30 31 32 33 34 35 36 37 38 39 40 41 42 43 44 45 46 47 48 49 50

000
ASUS43 KDTX 291401
RWRMI
MICHIGAN HOURLY REGIONAL WEATHER ROUNDUP
NATIONAL WEATHER SERVICE DETROIT/PONTIAC MI
1000 AM EDT THU SEP 29 2016

NOTE: "FAIR" INDICATES FEW OR NO CLOUDS BELOW 12,000 FEET WITH NO
SIGNIFICANT WEATHER AND/OR OBSTRUCTION TO VISIBILITY.

MIZ047>049-052>055-059>063-066>070-074>076-081>083-291500-
SOUTHEAST LOWER MICHIGAN

CITY           SKY/WX    TMP DP  RH WIND       PRES   REMARKS
ADRIAN         CLOUDY    61  60  97 SE8       30.11R
ALMA           CLOUDY    62  58  88 NE14G20   30.21R
ANN ARBOR      LGT RAIN  60  60 100 NE10      30.13R
CARO           CLOUDY    62  55  78 E12G25    30.21R
DETROIT CITY   RAIN      57  57 100 S6        30.15R FOG
DETROIT        LGT RAIN  61  59  93 NE13      30.14R FOG
FLINT          CLOUDY    60  57  89 NE16      30.17R
HILLSDALE      CLOUDY    59  57  94 NE6       30.10R
HOWELL         RAIN      59  58  96 NE12G20   30.15R

CITY           SKY/WX    TMP DP  RH WIND       PRES   REMARKS
JACKSON        CLOUDY    60  59  96 NE12      30.12R
LAMBERTVILLE   MOSUNNY   60  56  85 SE5       30.11R
LANSING        RAIN      59  56  89 NE13      30.16R FOG
LAPEER         CLOUDY    60  57  92 E7G20     30.19R
MASON          HVY RAIN  58  57  96 NE8G16    30.14R
MONROE         CLOUDY    61  57  86 CALM      30.11R
MT. CLEMENS    CLOUDY    61  59  91 E20G26    30.12R
PONTIAC        LGT RAIN  59  57  93 SE7       30.15R FOG
PORT HURON     CLOUDY    59  57  94 E12       30.18R
TRI CITIES     CLOUDY    63  57  81 NE17      30.23R
MIDLAND        CLOUDY    63  56  78 NE14G28   30.24R
TROY           HVY RAIN  60  57  92 CALM      30.17R VSB 1/2
SAGINAW HB     CLOUDY    61  54  77 NE17G25   30.21R
$$
MIZ043>046-050>051-056>058-064>065-071>073-077>080-291500-
SOUTHWEST LOWER MICHIGAN

CITY           SKY/WX    TMP DP  RH WIND       PRES   REMARKS
BATTLE CREEK   LGT RAIN  59  58  96 NE13      30.12S FOG
BENTON HARBOR  LGT RAIN  59  56  89 NE8G17    30.12S FOG
BIG RAPIDS     PTSUNNY   61  56  84 NE13G23   30.24R
COLDWATER      CLOUDY    60  59  96 NE9G17    30.10R
FREMONT        PTSUNNY   60  55  83 NE13G24   30.21R
HOLLAND        CLOUDY    62  56  80 NE12G18   30.17R
GRAND RAPIDS   RAIN      60  56  86 NE16G23   30.17R FOG
IONIA          LGT RAIN  58  56  92 NE13G22   30.17R
KALAMAZOO      LGT RAIN  59  56  89 VRB6      30.12R FOG
LUDINGTON      SUNNY     60  55  83 NE9G16    30.26R
MARSHALL       CLOUDY    59  59  98 NE6       30.11R
MOUNT PLEASANT CLOUDY    62  56  82 NE17      30.23R
MUSKEGON       PTSUNNY   61  56  83 NE13      30.20R
SOUTH HAVEN    RAIN      60  59  97 NE10      30.14R
$$
MIZ016>042-291500-
NORTHERN LOWER MICHIGAN

CITY           SKY/WX    TMP DP  RH WIND       PRES   REMARKS
ALPENA         MOSUNNY   63  56  78 NE18      30.35S
BEAVER ISLAND  MOSUNNY   60  56  85 E9        30.39R
BELLAIRE       PTSUNNY   61  56  84 NE10G16   30.35R
CADILLAC       CLOUDY    60  54  81 NE13G22   30.28R
CHARLEVOIX     PTSUNNY   61  57  86 E8        30.39S
FRANKFORT      SUNNY     63  55  77 NE7       30.32R
GAYLORD        CLOUDY    59  54  83 NE10      30.35R
GRAYLING       CLOUDY    60  57  87 NE9G21    30.33R
HARBOR SPRINGS CLOUDY    60  56  87 E10       30.38R FOG
HOUGHTON LAKE  MOSUNNY   61  55  81 NE13G25   30.30R
MANISTEE       PTSUNNY   60  55  83 NE15G21   30.29R
OSCODA         PTSUNNY   63  56  78 E18       30.31R
ROGERS CITY    CLOUDY    60  56  85 E13       30.39S
TRAVERSE CITY  MOSUNNY   63  56  78 NE10      30.32R
$$
MIZ007>008-015-291500-
EASTERN UPPER MICHIGAN

CITY           SKY/WX    TMP DP  RH WIND       PRES   REMARKS
KINROSS        SUNNY     57  51  80 E10       30.42R
MACKINAC ISLAN CLOUDY    59  56  88 E9G20     30.40R
NEWBERRY       SUNNY     56  55  97 N6        30.41R
S. S. MARIE    SUNNY     59  50  72 E7        30.42R
MUNISING         N/A     61  57  87 CALM      30.42R
$$
MIZ004>006-011>014-085-291500-
CENTRAL UPPER MICHIGAN

CITY           SKY/WX    TMP DP  RH WIND       PRES   REMARKS
MANISTIQUE     SUNNY     58  55  89 N9        30.40R
ESCANABA       SUNNY     61  56  83 N8        30.40R
MENOMINEE      SUNNY     58  54  86 N12       30.38R
SAWYER-GWINN   CLOUDY    57  54  88 N14       30.43R
$$
MIZ001>003-009>011-084-291500-
WESTERN UPPER MICHIGAN

CITY           SKY/WX    TMP DP  RH WIND       PRES   REMARKS
IRON MOUNTAIN  CLOUDY    54  50  86 N6        30.42R
HOUGHTON       CLOUDY    56  52  86 NE9       30.48R
COPPER HARBOR    N/A     56  54  93 NE10      30.48R
IRONWOOD       CLOUDY    54  53  97 NE7       30.49R
$$

ABBREVIATIONS USED IN REMARKS
   TC - TEMPERATURE IN CELSIUS
  WCI - WIND CHILL INDEX
   HX - HEAT INDEX
  VSB - VISIBILITY





USA.gov is the U.S. government's official web portal to all federal, state and local government web resources and services.